Morristown, NJ

7:26 AM EDT on May 27, 2017 (GMT -0400)
Morristown Municipal

Weather History for KMMU - March, 2015

Change the Weather History Date:

Thursday, March 5, 2015

  Actual Average Record
Temperature  
Mean Temperature 30 °F -  
Max Temperature 41 °F 44 °F 73 °F (1974)
Min Temperature 19 °F 26 °F 4 °F (1948)
Degree Days  
Heating Degree Days 35    
Moisture  
Dew Point 24 °F    
Average Humidity 81    
Maximum Humidity 93    
Minimum Humidity 46    
Precipitation  
Precipitation 0.07 in - - ()
Sea Level Pressure  
Sea Level Pressure 30.11 in    
Wind  
Wind Speed 3 mph (NNW)    
Max Wind Speed 15 mph    
Max Gust Speed 21 mph    
Visibility 5 miles    
Events Rain , Snow    
Averages and records for this station are not official NWS values.
T = Trace of Precipitation, MM = Missing Value Source: NWS Daily Summary

Daily Weather History Graph

Daily Weather History Graph

Search for Another Location

Airport or City:

Trip Planner

Search our weather history database for the weather conditions in past years. The results will help you decide how hot, cold, wet, or windy it might be!

Date:

Astronomy

Mar. 05, 2015 Rise Set
Actual Time 6:25 AM EST 5:53 PM EST
Civil Twilight 5:58 AM EST 6:20 PM EST
Nautical Twilight 5:26 AM EST 6:52 PM EST
Astronomical Twilight 4:54 AM EST 7:24 PM EST
Moon 6:03 PM EST (3/5) 6:09 AM EST (3/5)
Length of Visible Light 12h 22m
Length of Day
11h 27m
Full, 100% of the Moon is Illuminated
Mar 5
Full
Mar 5
Full
Mar 13
Last Quarter
Mar 20
New
Mar 27
First Quarter

Hourly Weather History & Observations

Time (EST) Temp. Windchill Dew Point Humidity Pressure Visibility Wind Dir Wind Speed Gust Speed Precip Events Conditions
12:15 AM 41.0 °F - 37.4 °F 87% 29.91 in 5.0 mi Calm Calm - 0.03 in Rain Light Rain
12:35 AM 41.0 °F - 37.4 °F 87% 29.90 in 7.0 mi Calm Calm - 0.04 in Rain Light Rain
12:55 AM 41.0 °F - 35.6 °F 81% 29.90 in 7.0 mi Calm Calm - N/A Rain Light Rain
1:15 AM 39.2 °F - 35.6 °F 87% 29.91 in 5.0 mi Calm Calm - 0.02 in Rain Rain
1:35 AM 39.2 °F - 35.6 °F 87% 29.91 in 5.0 mi Calm Calm - 0.04 in Rain Rain
1:55 AM 39.2 °F 35.9 °F 35.6 °F 87% 29.91 in 7.0 mi NNW 4.6 mph - N/A Rain Rain
2:15 AM 39.2 °F 37.0 °F 35.6 °F 87% 29.92 in 10.0 mi NW 3.5 mph - N/A Rain Light Rain
2:35 AM 39.2 °F 35.9 °F 33.8 °F 81% 29.94 in 7.0 mi NNW 4.6 mph - 0.01 in Rain Light Rain
2:55 AM 37.4 °F 31.4 °F 33.8 °F 87% 29.93 in 7.0 mi NNW 8.1 mph - N/A Rain Light Rain
3:15 AM 35.6 °F 29.2 °F 32.0 °F 87% 29.93 in 2.0 mi North 8.1 mph - 0.01 in Snow Light Snow
3:35 AM 35.6 °F 28.0 °F 32.0 °F 87% 29.93 in 2.5 mi NNW 10.4 mph - 0.02 in Snow Light Snow
3:55 AM 35.6 °F 32.8 °F 32.0 °F 87% 29.96 in 3.0 mi NNW 3.5 mph - N/A Snow Light Snow
4:15 AM 35.6 °F - 32.0 °F 87% 29.97 in 3.0 mi Calm Calm - N/A Snow Light Snow
4:35 AM 35.6 °F - 32.0 °F 87% 29.99 in 2.0 mi Calm Calm - N/A Snow Light Snow
4:55 AM 35.6 °F 31.7 °F 32.0 °F 87% 29.99 in 2.0 mi NNW 4.6 mph - N/A Snow Light Snow
5:15 AM 35.6 °F - 32.0 °F 87% 30.00 in 2.0 mi Calm Calm - N/A Snow Light Snow
5:35 AM 35.6 °F - 32.0 °F 87% 30.00 in 3.0 mi Calm Calm - N/A Snow Light Snow
5:55 AM 33.8 °F - 32.0 °F 93% 30.00 in 3.0 mi Calm Calm - N/A Snow Light Snow
6:15 AM 33.8 °F - 32.0 °F 93% 30.01 in 4.0 mi Calm Calm - N/A Snow Light Snow
6:35 AM 33.8 °F - 32.0 °F 93% 30.03 in 3.0 mi Calm Calm - N/A Snow Light Snow
6:45 AM 32.0 °F - 30.2 °F 93% 30.04 in 1.5 mi Calm Calm - N/A Snow Snow
7:45 AM 32.0 °F - 30.2 °F 93% 30.07 in - Calm Calm - N/A Snow Snow
8:25 AM 28.4 °F 19.1 °F 26.6 °F 93% 30.12 in 0.5 mi North 10.4 mph 17.3 mph N/A Snow Snow
8:45 AM 28.4 °F 19.7 °F 26.6 °F 93% 30.13 in 1.0 mi North 9.2 mph 13.8 mph N/A Snow Snow
9:45 AM 28.4 °F 20.4 °F 26.6 °F 93% 30.14 in 0.8 mi North 8.1 mph 15.0 mph N/A Snow Snow
10:45 AM 24.8 °F 12.4 °F 23.0 °F 93% 30.14 in 0.5 mi North 15.0 mph 20.7 mph N/A Snow Snow
11:45 AM 23.0 °F 13.9 °F 19.4 °F 86% 30.18 in 0.8 mi North 8.1 mph 15.0 mph N/A Snow Snow
12:45 PM 21.2 °F - 19.4 °F 93% 30.18 in 0.5 mi Calm Calm - N/A Snow Snow
1:31 PM 21.2 °F - 17.6 °F 86% 30.16 in - Calm Calm - N/A Snow Light Snow
1:45 PM 21.2 °F 16.4 °F 17.6 °F 86% 30.15 in - NNW 3.5 mph - N/A   Overcast
2:45 PM 23.0 °F 13.9 °F 14.0 °F 68% 30.17 in 3.0 mi NW 8.1 mph - N/A   Overcast
3:20 PM 21.2 °F 14.9 °F 15.8 °F 80% 30.20 in 1.5 mi NNW 4.6 mph - N/A   Overcast
3:45 PM 19.4 °F 11.5 °F 17.6 °F 93% 30.21 in 1.0 mi North 5.8 mph - N/A   Overcast
3:46 PM 19.4 °F 11.5 °F 17.6 °F 93% 30.21 in 1.0 mi North 5.8 mph - N/A Snow Light Snow
4:45 PM 19.4 °F - 15.8 °F 86% 30.22 in 8.0 mi Calm Calm - N/A Snow Light Snow
5:15 PM 21.2 °F 14.9 °F 15.8 °F 80% 30.22 in 2.5 mi NW 4.6 mph - N/A Snow Light Snow
5:45 PM 19.4 °F 12.8 °F 15.8 °F 86% 30.25 in 5.0 mi NW 4.6 mph - N/A Snow Light Snow
6:45 PM 21.2 °F 13.6 °F 12.2 °F 68% 30.28 in 7.0 mi NW 5.8 mph - N/A   Overcast
7:45 PM 21.2 °F 13.6 °F 10.4 °F 63% 30.29 in 7.0 mi NW 5.8 mph - N/A   Overcast
8:45 PM 21.2 °F - 10.4 °F 63% 30.31 in 10.0 mi Calm Calm - N/A   Overcast
9:45 PM 21.2 °F 10.9 °F 10.4 °F 63% 30.35 in 10.0 mi NW 9.2 mph - N/A   Overcast
10:35 PM 23.0 °F 11.1 °F 5.0 °F 46% 30.36 in 10.0 mi NW 12.7 mph 16.1 mph N/A   Clear
10:55 PM 21.2 °F 10.9 °F 5.0 °F 50% 30.37 in 10.0 mi North 9.2 mph - N/A   Clear
11:15 PM 21.2 °F 10.9 °F 5.0 °F 50% 30.38 in 10.0 mi NNW 9.2 mph - N/A   Clear
11:35 PM 19.4 °F 7.2 °F 3.2 °F 49% 30.39 in 10.0 mi NNW 11.5 mph 18.4 mph N/A   Clear
11:55 PM 19.4 °F 6.6 °F 3.2 °F 49% 30.40 in 10.0 mi NNW 12.7 mph 16.1 mph N/A   Clear